CW9352 Weather Reports


Display with metric or nautical units.
time (UTC)temp
F
wind
direction
speed
MPH
gust
MPH
rain 1hr
in
rain 24hr
in
rain mn
in
humidity
%
barometer
mb
20260505165019 75 143 3.0 7.0 0.01 0.02 0.02 75 1015.6
20260505164041 76 138 3.0 8.0 0.02 0.02 0.02 74 1015.7
20260505163018 77 182 2.0 5.0 0.02 0.02 0.02 73 1015.7
20260505162028 77 162 1.0 3.0 0.02 0.02 0.02 74 1015.7
20260505161029 76 162 2.0 5.0 0.02 0.02 0.02 74 1015.6
20260505153019 76 199 2.0 6.0 0.00 0.00 0.00 70 1015.7
20260505152019 77 175 2.0 6.0 0.00 0.00 0.00 69 1015.7
20260505151019 76 167 2.0 5.0 0.00 0.00 0.00 69 1015.6
20260505125018 68 348 1.0 3.0 0.00 0.00 0.00 78 1015.1
20260505124019 65 338 1.0 3.0 0.00 0.00 0.00 83 1014.9
20260505123019 62 330 2.0 3.0 0.00 0.00 0.00 89 1014.9
20260505122039 59 318 1.0 2.0 0.00 0.00 0.00 94 1014.9
20260505121019 57 318 1.0 2.0 0.00 0.00 0.00 95 1014.9
20260505120059 56 329 1.0 2.0 0.00 0.00 0.00 95 1014.8
20260505115019 55 311 1.0 2.0 0.00 0.00 0.00 95 1014.6
20260505114020 55 302 1.0 1.0 0.00 0.00 0.00 95 1014.5
20260505113020 55 321 1.0 2.0 0.00 0.00 0.00 95 1014.4
20260505112020 54 327 2.0 2.0 0.00 0.00 0.00 94 1014.3
20260505111020 54 323 2.0 2.0 0.00 0.00 0.00 94 1014.2
20260505102021 54 321 1.0 2.0 0.00 0.00 0.00 92 1014.2
20260505101021 55 319 1.0 2.0 0.00 0.00 0.00 91 1014.2
20260505100022 55 322 1.0 2.0 0.00 0.00 0.00 91 1014.0
20260505095022 55 321 1.0 2.0 0.00 0.00 0.00 90 1014.1
20260505094021 56 333 2.0 2.0 0.00 0.00 0.00 90 1014.0
20260505093022 56 328 1.0 2.0 0.00 0.00 0.00 89 1014.0
20260505092022 56 320 1.0 2.0 0.00 0.00 0.00 89 1013.8
20260505091022 56 321 1.0 2.0 0.00 0.00 0.00 88 1013.7
20260505085022 57 325 1.0 2.0 0.00 0.00 0.00 86 1013.5
20260505084022 58 304 1.0 2.0 0.00 0.00 0.00 86 1013.4
20260505083023 58 309 1.0 2.0 0.00 0.00 0.00 85 1013.4
20260505082023 58 322 1.0 2.0 0.00 0.00 0.00 84 1013.4
20260505081023 59 321 1.0 2.0 0.00 0.00 0.00 83 1013.4
20260505080043 60 326 1.0 2.0 0.00 0.00 0.00 81 1013.5
20260505075023 60 322 1.0 3.0 0.00 0.00 0.00 82 1013.6
20260505074024 60 310 1.0 2.0 0.00 0.00 0.00 82 1013.6
20260505073024 61 308 1.0 2.0 0.00 0.00 0.00 80 1013.6
20260505072044 62 329 2.0 2.0 0.00 0.00 0.00 77 1013.7
20260505071025 64 312 1.0 1.0 0.00 0.00 0.00 76 1013.7
20260505070109 65 306 1.0 1.0 0.00 0.00 0.00 73 1013.9
20260505065045 65 267 1.0 2.0 0.00 0.00 0.00 72 1014.1
20260505064024 64 246 1.0 3.0 0.00 0.00 0.00 75 1014.2
20260505063025 64 288 1.0 3.0 0.00 0.00 0.00 76 1014.5
20260505062025 66 309 1.0 1.0 0.00 0.00 0.00 74 1014.5
20260505061025 66 272 1.0 2.0 0.00 0.00 0.00 73 1014.6
20260505060025 66 276 1.0 2.0 0.00 0.00 0.00 74 1014.6
20260505055025 66 233 1.0 3.0 0.00 0.00 0.00 74 1014.8
20260505054026 0 314 1.0 1.0 0.00 0.00 0.00
20260505053026 65 243 1.0 3.0 0.00 0.00 0.00 74 1015.1
20260505052025 64 257 1.0 3.0 0.00 0.00 0.00 76 1014.9
20260505051046 61 273 1.0 2.0 0.00 0.00 0.00 82 1014.8
20260505041027 67 250 1.0 3.0 0.00 0.00 0.00 71 1015.2
20260505040027 66 278 1.0 2.0 0.00 0.00 0.00 73 1015.2
20260505035047 67 270 1.0 2.0 0.00 0.00 0.00 73 1015.2
20260505034028 67 261 1.0 3.0 0.00 0.00 0.00 74 1015.1
20260505033108 68 246 1.0 3.0 0.00 0.00 0.00 73 1015.1
20260505032028 68 246 1.0 2.0 0.00 0.00 0.00 72 1015.3
20260505031028 68 224 2.0 3.0 0.00 0.00 0.00 72 1015.3
20260505030029 69 288 0.0 1.0 0.00 0.00 0.00 70 1015.1
20260505025101 68 215 1.0 2.0 0.00 0.00 0.00 69 1015.1
20260505024028 68 214 1.0 3.0 0.00 0.00 0.00 72 1015.0
20260505023029 68 246 1.0 2.0 0.00 0.00 0.00 72 1015.0
20260505022029 69 251 1.0 2.0 0.00 0.00 0.00 72 1015.0
20260505021029 69 236 1.0 3.0 0.00 0.00 0.00 70 1015.0
20260505020030 69 238 1.0 3.0 0.00 0.00 0.00 70 1015.1
20260505015029 70 224 2.0 4.0 0.00 0.00 0.00 69 1015.1
20260505014030 69 218 1.0 2.0 0.00 0.00 0.00 69 1015.1
20260505013029 70 215 1.0 3.0 0.00 0.00 0.00 69 1015.3
20260505012050 70 200 2.0 4.0 0.00 0.00 0.00 68 1015.5
20260505011030 70 215 2.0 4.0 0.00 0.00 0.00 67 1015.3
20260505010030 70 215 2.0 4.0 0.00 0.00 0.00 67 1015.3
20260505005050 70 229 2.0 4.0 0.00 0.00 0.00 66 1015.5
20260505004031 70 221 2.0 3.0 0.00 0.00 0.00 65 1015.3
20260505003030 70 226 2.0 4.0 0.00 0.00 0.00 65 1015.3
20260505002030 71 251 1.0 3.0 0.00 0.00 0.00 64 1015.3
20260505001031 72 212 2.0 3.0 0.00 0.00 0.00 62 1015.4
20260505000031 72 206 2.0 3.0 0.00 0.00 0.00 62 1015.4
20260504235031 72 201 2.0 4.0 0.00 0.00 0.00 61 1015.6
20260504234031 73 214 1.0 4.0 0.00 0.00 0.00 60 1015.7
20260504233031 73 226 1.0 4.0 0.00 0.00 0.00 59 1015.6
20260504232032 74 204 1.0 3.0 0.00 0.00 0.00 58 1015.4
20260504231053 74 204 2.0 4.0 0.00 0.00 0.00 57 1015.4
20260504230023 74 206 2.0 6.0 0.00 0.00 0.00 57 1015.7
20260504225032 74 220 2.0 4.0 0.00 0.00 0.00 57 1015.6
20260504224032 75 197 2.0 5.0 0.00 0.00 0.00 57 1015.6
20260504223018 75 179 1.0 3.0 0.00 0.00 0.00 56 1015.6
20260504222018 75 187 2.0 5.0 0.00 0.00 0.00 56 1015.6
20260504221018 75 168 2.0 4.0 0.00 0.00 0.00 55 1015.8
20260504220018 75 167 2.0 5.0 0.00 0.00 0.00 55 1015.5
20260504215018 76 174 2.0 6.0 0.00 0.00 0.00 54 1015.7
20260504214018 76 188 2.0 7.0 0.00 0.00 0.00 54 1015.7
20260504213019 76 160 2.0 6.0 0.00 0.00 0.00 53 1015.7
20260504212019 76 159 2.0 4.0 0.00 0.00 0.00 52 1015.8
20260504211019 76 167 3.0 6.0 0.00 0.00 0.00 52 1015.9
20260504210019 76 155 2.0 4.0 0.00 0.00 0.00 52 1015.9
20260504205039 76 180 3.0 6.0 0.00 0.00 0.00 52 1015.8
20260504204019 75 152 2.0 5.0 0.00 0.00 0.00 53 1016.0
20260504203100 74 151 2.0 3.0 0.00 0.00 0.00 54 1016.0
20260504202020 75 162 3.0 6.0 0.00 0.00 0.00 53 1016.1
20260504201020 75 104 2.0 5.0 0.00 0.00 0.00 53 1016.1
20260504200020 75 163 2.0 8.0 0.00 0.00 0.00 52 1016.3
20260504195017 75 121 2.0 7.0 0.00 0.00 0.00 52 1016.4
20260504194037 75 137 2.0 7.0 0.00 0.00 0.00 52 1016.6
20260504193020 76 189 2.0 8.0 0.00 0.00 0.00 52 1016.7
20260504192020 76 216 2.0 5.0 0.00 0.00 0.00 52 1016.8
20260504191018 76 197 2.0 7.0 0.00 0.00 0.00 51 1016.9
20260504190018 76 120 2.0 6.0 0.00 0.00 0.00 50 1017.1
20260504185037 76 199 2.0 5.0 0.00 0.00 0.00 52 1017.1
20260504184023 75 128 1.0 4.0 0.00 0.00 0.00 50 1017.2
20260504183041 75 213 2.0 4.0 0.00 0.00 0.00 52 1017.4
20260504182022 75 88 2.0 4.0 0.00 0.00 0.00 50 1017.3
20260504181021 75 212 2.0 5.0 0.00 0.00 0.00 52 1017.5
20260504180022 75 158 1.0 3.0 0.00 0.00 0.00 52 1017.5
20260504175022 75 186 2.0 6.0 0.00 0.00 0.00 53 1017.5
20260504174019 74 96 1.0 4.0 0.00 0.00 0.00 52 1017.6
20260504173019 75 128 2.0 6.0 0.00 0.00 0.00 48 1017.8
20260504172019 74 186 2.0 6.0 0.00 0.00 0.00 52 1017.8
20260504171019 75 151 3.0 7.0 0.00 0.00 0.00 50 1017.9